Location: *
(29.1167°S, 130.0000°E)
Time: 07:35:22
(UTC+00:00)

Hubble Space Telescope - Pass Details

Date: 21 July 2019
Orbit: 536 x 540 km, 28.5° (Epoch: 18 August)

Event Time Altitude Azimuth Distance (km) Brightness Sun altitude
Rises 10:35:17 0° 300° (WNW) 2,679 5.5 -24.4°
Reaches altitude 10° 10:37:38 10° 307° (NW) 1,792 4.3 -24.9°
Enters shadow 10:40:38 35° 345° (NNW) 883 2.0 -25.5°
